Flag for U.S.A. Weather past 2 weeks in Winamac, Indiana, U.S.A.

Now
32 °F

Overcast.


Feels Like: 25 °F
Forecast: 26 / 36 °F
Wind: 8 mph from South

Location: Porter County Municipal Airport

Current Time: Dec 21, 2014 at 1:47:30 PM

Latest Report: Dec 21, 2014 at 12:56 PM


Visibility: 7 mi

Pressure: 30.22 "Hg

Humidity: 79%

Dew point: 26 °F

Location of WinamacLocation

Historic Weather in Winamac — Graph

°F

Winamac temperature yesterday

Maximum temperature yesterday: 32 °F (at 11:56 AM)
Minimum temperature yesterday: 29 °F (at 5:56 AM)
Average temperature yesterday: 31 °F

Past Weeks' High & Low Weather Summary

 TemperatureHumidityPressure
High50 °F (Dec 14, 1:56 PM)100% (Dec 8, 5:56 PM)30.68 "Hg (Dec 8, 5:56 PM)
Low20 °F (Dec 7, 7:56 AM)57% (Dec 7, 2:56 PM)29.66 "Hg (Dec 16, 4:56 AM)
Average33 °F84%30.23 "Hg
* Reported Dec 6 12:56 PM — Dec 21 12:56 PM, Winamac, Weather by CustomWeather, © 2014

Note: Actual official high and low records may vary slightly from our data, if they occured in-between our weather recording intervals... More about our weather records

Advertising

Winamac weather history for previous 24 hours

 ConditionsComfort  
Time TempWeatherWind HumidityBarometerVisibility
12:56 PM
Dec 21
32 °FOvercast.8 mph79%30.22 "Hg7 mi
11:56 AM31 °FOvercast.12 mph82%30.25 "Hg7 mi
10:56 AM31 °FOvercast.9 mph82%30.27 "Hg6 mi
9:56 AM30 °FIce fog.9 mph85%30.28 "Hg5 mi
8:56 AM30 °FIce fog.8 mph85%30.28 "Hg5 mi
7:56 AM30 °FIce fog.8 mph85%30.28 "Hg6 mi
6:56 AM30 °FOvercast.6 mph85%30.27 "Hg7 mi
5:56 AM30 °FOvercast.6 mph85%30.28 "Hg7 mi
4:56 AM30 °FOvercast.6 mph85%30.28 "Hg7 mi
3:56 AM30 °FIce fog.6 mph85%30.29 "Hg6 mi
2:56 AM30 °FIce fog.6 mph85%30.29 "Hg6 mi
1:56 AM30 °FIce fog.5 mph85%30.29 "Hg6 mi
12:56 AM30 °FIce fog.5 mph85%30.29 "Hg6 mi
11:56 PM
Dec 20
30 °FOvercast.3 mph85%30.29 "Hg7 mi
10:56 PM30 °FOvercast.3 mph85%30.30 "Hg7 mi
9:56 PM30 °FOvercast.5 mph85%30.31 "Hg8 mi
8:56 PM31 °FOvercast.6 mph82%30.30 "Hg8 mi
7:56 PM31 °FOvercast.5 mph79%30.29 "Hg9 mi
6:56 PM31 °FOvercast.No wind79%30.30 "Hg9 mi
5:56 PM31 °FOvercast.5 mph79%30.30 "Hg10 mi
4:56 PM32 °FOvercast.3 mph73%30.29 "Hg10 mi
4:04 PM32 °FMore clouds than sun.6 mph73%30.26 "Hg10 mi
3:56 PM32 °FMostly cloudy.6 mph73%30.28 "Hg10 mi
2:56 PM32 °FMostly cloudy.7 mph73%30.27 "Hg10 mi
1:56 PM32 °FOvercast.7 mph73%30.28 "Hg10 mi
Weather by CustomWeather, © 2014

See weather overviewHow to use our weather pages